TimeEST,TemperatureF,Dew PointF,Humidity,Sea Level PressureIn,VisibilityMPH,Wind Direction,Wind SpeedMPH,Gust SpeedMPH,PrecipitationIn,Events,Conditions,WindDirDegrees,DateUTC
12:53 AM,24.1,21.0,88,30.07,10.0,NE,9.2,-,N/A,,Overcast,40,2013-03-06 05:53:00
1:45 AM,24.8,21.2,86,30.01,10.0,NE,10.4,-,N/A,,Overcast,40,2013-03-06 06:45:00
1:53 AM,25.0,21.9,88,30.07,10.0,NE,9.2,-,N/A,,Overcast,50,2013-03-06 06:53:00
2:53 AM,27.0,23.0,85,30.07,10.0,NE,10.4,-,N/A,,Overcast,50,2013-03-06 07:53:00
3:31 AM,26.6,24.8,93,30.03,10.0,NE,10.4,17.3,N/A,,Overcast,40,2013-03-06 08:31:00
3:53 AM,27.0,24.1,89,30.08,10.0,NE,11.5,18.4,N/A,,Overcast,50,2013-03-06 08:53:00
4:53 AM,28.0,25.0,88,30.10,10.0,NE,9.2,-,N/A,,Overcast,50,2013-03-06 09:53:00
5:53 AM,28.0,25.0,88,30.13,10.0,NNE,4.6,-,N/A,,Overcast,30,2013-03-06 10:53:00
6:44 AM,28.4,24.8,86,30.10,10.0,NE,5.8,-,N/A,,Overcast,40,2013-03-06 11:44:00
6:53 AM,28.0,25.0,88,30.17,10.0,NNE,5.8,-,N/A,,Overcast,30,2013-03-06 11:53:00
7:24 AM,28.4,24.8,86,30.12,7.0,Variable,4.6,-,0.00,,Overcast,0,2013-03-06 12:24:00
7:37 AM,28.4,24.8,86,30.12,1.8,Variable,5.8,-,0.00,Snow,Light Snow,0,2013-03-06 12:37:00
7:47 AM,26.6,24.8,93,30.12,2.0,NNE,4.6,-,0.00,Snow,Light Snow,20,2013-03-06 12:47:00
7:53 AM,27.0,25.0,92,30.19,1.5,NNE,5.8,-,0.00,Snow,Light Snow,30,2013-03-06 12:53:00
8:14 AM,26.6,24.8,93,30.12,3.0,NE,6.9,-,0.00,Snow,Light Snow,50,2013-03-06 13:14:00
8:53 AM,28.0,25.0,88,30.19,10.0,NE,5.8,-,0.00,,Mostly Cloudy,50,2013-03-06 13:53:00
9:07 AM,28.4,24.8,86,30.13,10.0,ENE,5.8,-,N/A,,Mostly Cloudy,60,2013-03-06 14:07:00
9:18 AM,30.2,26.6,86,30.12,10.0,East,6.9,-,N/A,,Mostly Cloudy,80,2013-03-06 14:18:00
9:53 AM,30.0,26.1,85,30.18,10.0,ENE,8.1,-,N/A,,Mostly Cloudy,70,2013-03-06 14:53:00
10:11 AM,30.2,26.6,86,30.12,10.0,ENE,4.6,-,N/A,,Mostly Cloudy,70,2013-03-06 15:11:00
10:53 AM,32.0,27.0,82,30.19,10.0,ENE,6.9,-,N/A,,Overcast,70,2013-03-06 15:53:00
11:53 AM,33.1,26.1,75,30.20,10.0,ENE,5.8,-,N/A,,Overcast,70,2013-03-06 16:53:00
12:53 PM,33.1,27.0,78,30.20,10.0,Variable,3.5,-,N/A,,Overcast,0,2013-03-06 17:53:00
1:08 PM,33.8,26.6,75,30.14,10.0,NE,3.5,-,N/A,,Overcast,40,2013-03-06 18:08:00
1:53 PM,34.0,27.0,75,30.18,10.0,Calm,Calm,-,N/A,,Overcast,0,2013-03-06 18:53:00
2:53 PM,35.1,26.1,70,30.18,10.0,Calm,Calm,-,N/A,,Overcast,0,2013-03-06 19:53:00
3:53 PM,35.1,26.1,70,30.19,10.0,NNE,3.5,-,N/A,,Overcast,20,2013-03-06 20:53:00
4:53 PM,35.1,26.1,70,30.19,10.0,North,5.8,-,N/A,,Overcast,350,2013-03-06 21:53:00
5:53 PM,33.1,26.1,75,30.19,10.0,Variable,3.5,-,N/A,,Overcast,0,2013-03-06 22:53:00
6:03 PM,33.8,26.6,75,30.15,10.0,Calm,Calm,-,N/A,,Overcast,0,2013-03-06 23:03:00
6:53 PM,32.0,26.1,79,30.21,10.0,Calm,Calm,-,N/A,,Overcast,0,2013-03-06 23:53:00
7:53 PM,30.9,26.1,82,30.22,5.0,Calm,Calm,-,0.00,Snow,Light Snow,0,2013-03-07 00:53:00
8:53 PM,30.0,27.0,88,30.22,6.0,Calm,Calm,-,0.00,Snow,Light Snow,0,2013-03-07 01:53:00
9:37 PM,30.2,26.6,86,30.17,3.0,Calm,Calm,-,0.00,Snow,Light Snow,0,2013-03-07 02:37:00
9:53 PM,30.0,27.0,88,30.23,4.0,Calm,Calm,-,0.00,Snow,Light Snow,0,2013-03-07 02:53:00
10:10 PM,28.4,26.6,93,30.18,3.0,NW,4.6,-,0.00,Snow,Light Snow,320,2013-03-07 03:10:00
10:34 PM,30.2,26.6,86,30.18,2.5,Calm,Calm,-,0.00,Snow,Light Snow,0,2013-03-07 03:34:00
10:53 PM,28.9,27.0,92,30.23,3.0,Calm,Calm,-,0.00,Snow,Light Snow,0,2013-03-07 03:53:00
11:15 PM,28.4,26.6,93,30.18,5.0,Calm,Calm,-,0.00,,Overcast,0,2013-03-07 04:15:00
11:47 PM,28.4,26.6,93,30.18,1.8,NW,4.6,-,0.00,Snow,Light Snow,320,2013-03-07 04:47:00
11:53 PM,28.0,26.1,92,30.24,1.0,NW,4.6,-,0.00,Snow,Light Snow,310,2013-03-07 04:53:00